Tracking 19795 objects as of 20-Jul-2019
HD Live streaming from Space Station
objects crossing your sky now

SL-8 R/B

Track SL-8 R/B now!
10-day predictions


NORAD ID: 5707
Int'l Code: 1971-114B
Perigee: 751.8 km
Apogee: 787.1 km
Inclination: 74.0 °
Period: 100.1 minutes
Semi major axis: 7140 km
RCS: 4.239 m2 (large)
Launch date: December 17, 1971
Source: Commonwealth of Independent States (former USSR) (CIS)
Launch site: PLESETSK MISSILE AND SPACE COMPLEX (PKMTR)

Note: This is a ROCKET BODY
aabbcc
Your satellite tracking list
Your tracking list is empty




NASA's NSSDC Master Catalog

Two Line Element Set (TLE):
1  5707U 71114B   19200.87006674  .00000014  00000-0  13034-4 0  9993
2  5707  74.0277 119.1446 0024739 355.9117   4.1831 14.38856742492482
Source of the keplerian elements: AFSPC